Printer-friendly version

IAU Minor Planet Center

Minor Planet Center

MPEC 2006-F48 : 2006 AQ

The following Minor Planet Electronic Circular may be linked-to from your own Web pages, but must not otherwise be redistributed electronically.


Read MPEC 2006-F47 Read MPEC 2006-F49


M.P.E.C. 2006-F48                                Issued 2006 Mar. 29, 17:11 UT

     The Minor Planet Electronic Circulars contain information on unusual
         minor planets and routine data on comets.  They are published
   on behalf of Commission 20 of the International Astronomical Union by the
          Minor Planet Center, Smithsonian Astrophysical Observatory,
                          Cambridge, MA 02138, U.S.A.

                  Supported in part by the Brinson Foundation
                  Supported in part by the TABASGO Foundation
             Prepared using the Tamkin Foundation Computer Network

                              MPC@CFA.HARVARD.EDU
          URL http://cfa-www.harvard.edu/iau/mpc.html  ISSN 1523-6714

                                    2006 AQ

                           Revision to MPEC 2006-A16

Additional Observations:
     K06A00Q  C2002 07 22.22001 20 16 22.21 -23 04 35.7          20.5 V EF048644
     K06A00Q  C2002 08 08.18968 19 51 04.25 -23 48 25.9                 EF048644
     K06A00Q  C2002 08 08.19084 19 51 04.07 -23 48 25.4                 EF048644

Observer details:
644 Palomar Mountain/NEAT.  Observers E. F. Helin, S. Pravdo, K. Lawrence,
    K. Kuluhiwa, M. Hicks, J. Schroeder, L. Scherr, A. Deetz.  Measurers
    S. Foglia, G. Forti, M. Tombelli.  1.2-m Oschin Schmidt + CCD.

Orbital elements:
2006 AQ                                                  Earth MOID = 0.0963 AU
Epoch 2006 Mar. 6.0 TT = JDT 2453800.5                  MPC
M   6.38144              (2000.0)            P               Q
n   0.33496042     Peri.  104.25472     +0.32753758     -0.94402596
a   2.0534008      Node   326.54399     +0.83717618     +0.30918372
e   0.4874202      Incl.    4.07411     +0.43801276     +0.11498006
P   2.94           H   18.0           G   0.15           U   2
Residuals in seconds of arc
020722 644  0.3+  0.8+    060103 568  0.1+  0.1+    060121 568  0.1-  0.1+
020808 644  0.4+  0.8-    060104 568  0.1-  0.2+    060121 568  0.1+  0.0
020808 644  0.7-  0.1-    060104 568  0.1-  0.2+    060121 J95  0.2-  0.4-
060102 568  0.1+  0.1-    060104 568  0.1-  0.0     060121 J95  0.9+  1.4-
060102 568  0.1+  0.2-    060105 291  0.2+  0.3+    060124 696  0.2-  0.5+
060103 568  0.1-  0.1-    060105 291  0.4-  0.2-    060124 696  0.5-  0.4+
060103 568  0.1-  0.0     060105 291  0.2+  0.1+    060224 696  0.1+  0.3+
060103 568  0.2-  0.1-    060105 291  0.4+  0.6+    060224 G96  0.9-  0.0
060103 568  0.1-  0.1-    060105 291  0.0   0.5+    060224 G96  0.1-  0.0
060103 568  0.1-  0.0     060105 291  0.1+  0.2-    060224 696  0.1+  0.1+
060103 568  0.1-  0.0     060105 568  0.0   0.0     060224 G96  0.3+  0.0
060103 568  0.1+  0.0     060105 568  0.1+  0.1-    060224 G96  0.0   0.2+
060103 568  0.1+  0.0     060105 568  0.1-  0.1-    060323 G96  0.2+  0.4+
060103 568  0.1+  0.0     060107 291  0.3+  0.4+    060323 G96  0.2+  0.1-
060103 568  0.1+  0.0     060107 291  0.9+  0.5+    060323 G96  0.0   0.1-
060103 568  0.0   0.0     060107 291  0.4+  0.2-    060323 G96  0.1-  0.4-
060103 568  0.1+  0.1+    060116 734  1.0+  0.2-
060103 568  0.2+  0.1+    060116 734  0.6-  0.7-

Ephemeris:
2006 AQ                  a,e,i = 2.05, 0.49, 4                   q = 1.0525
Date    TT    R. A. (2000) Decl.     Delta      r     Elong.  Phase     V
2006 03 26    04 05.35   +22 56.1    1.283    1.145    58.7    48.1    20.6
2006 04 05    04 52.27   +24 07.1    1.329    1.193    59.6    46.3    20.8
2006 04 15    05 37.87   +24 25.8    1.392    1.247    60.2    44.3    20.9
2006 04 25    06 21.10   +23 57.9    1.470    1.306    60.2    42.0    21.1
2006 05 05    07 01.36   +22 52.2    1.562    1.369    59.8    39.6    21.2
2006 05 15    07 38.40   +21 18.2    1.666    1.434    58.9    37.1    21.4
2006 05 25    08 12.32   +19 24.4    1.780    1.500    57.4    34.7    21.6
2006 06 04    08 43.40   +17 17.6    1.901    1.567    55.5    32.2    21.7
2006 06 14    09 11.97   +15 03.0    2.027    1.634    53.1    29.8    21.9
2006 06 24    09 38.41   +12 44.2    2.157    1.701    50.4    27.4    22.0

Gareth V. Williams           (C) Copyright 2006 MPC           M.P.E.C. 2006-F48

Read MPEC 2006-F47 Read MPEC 2006-F49


Our Web policy. Index to the CBAT/MPC/ICQ pages.


Valid HTML 4.01!